OpenBCM V1.13 (Linux)

Packet Radio Mailbox

DB0FHN

[JN59NK Nuernberg]

 Login: GUEST





  
LU9DCE > KEP      13.05.19 19:34l 246 Lines 12094 Bytes #999 (0) @ WW
BID : 24290_LU9DCE
Read: DF7EAV DK3UZ GUEST
Subj: TLE 13 05
Path: DB0FHN<DB0BLO<DB0ERF<OK0NAG<IK6ZDE<VE2PKT<N3HYM<LU9DCE
Sent: 190513/1800Z 24290@LU9DCE.TOR.BA.ARG.SOAM LinBPQ6.0.18

            __    _  _  ___  ____   ___  ____    ____  ____  ____
           (  )  / )( \/ _ \(    \ / __)(  __)  (  _ \(  _ \/ ___)
           / (_/\) \/ (\__  )) D (( (__  ) _)    ) _ ( ) _ (\___ \
           \____/\____/(___/(____/ \___)(____)  (____/(____/(____/
               ESTACION DE PACKET RADIO - BUENOS AIRES (GF05OM)
                   BOLETINES INFORMATIVOS PROGRAMADOS (BIP)
              28.125 USB @ 300 BAUD --- HELLOCODELINUX@GMAIL.COM

+----------------------------------------------------------------------------+
OSCAR 7
1  7530U 74089B   19133.15764189 -.00000028  00000-0  10654-3 0  9991
2  7530 101.7409 101.1979 0012573  58.4446   9.3735 12.53638002 35944
OSCAR 11 (UoSAT 2)
1 14781U 84021B   19133.13230223  .00000081  00000-0  16024-4 0  9995
2 14781  97.6137 159.5739 0010045  81.9012 278.3342 14.83082794893348
OSCAR 19 (LUSAT)
1 20442U 90005G   19133.07966276  .00000002  00000-0  17036-4 0  9999
2 20442  98.6462  75.1462 0010605 256.4912 103.5091 14.32924333531131
EYESAT A
1 22825U 93061C   19133.53704009 -.00000001  00000-0  17529-4 0  9993
2 22825  98.9018 121.3526 0009498 102.6059 257.6185 14.30057900336789
ITAMSAT
1 22826U 93061D   19133.54713103  .00000014  00000-0  23235-4 0  9994
2 22826  98.8958 121.3588 0010064  92.8856 267.3477 14.30391422336980
RADIO ROSTO
1 23439U 94085A   19132.88693907 -.00000041 +00000-0 +37140-4 0  9998
2 23439 064.8141 175.6444 0146746 120.3980 241.1540 11.27567841003742
JAS 2
1 24278U 96046B   19132.94750957 +.00000012 +00000-0 +49846-4 0  9998
2 24278 098.5320 291.3510 0349915 335.4748 023.0088 13.53090733122581
TECHSAT 1B
1 25397U 98043D   19133.49509302 -.00000017  00000-0  11749-4 0  9994
2 25397  98.6866  74.0827 0002151 116.4066 243.7333 14.23664972 82720
ISS (ZARYA)
1 25544U 98067A   19133.60979042  .00001720  00000-0  34859-4 0  9997
2 25544  51.6417 173.0132 0001331 349.5523 161.4534 15.52665513169887
PCSAT
1 26931U 01043C   19133.21513160 -.00000033  00000-0  19142-4 0  9993
2 26931  67.0506  97.8059 0006292 279.9936  80.0455 14.30541242919758
SAUDISAT 1C
1 27607U 02058C   19133.21930447 -.00000013  00000-0  19053-4 0  9991
2 27607  64.5533 161.1062 0082266 263.4771  95.6961 14.75543767881654
CUTE-1
1 27844U 03031E   19133.49081861  .00000059  00000-0  46136-4 0  9994
2 27844  98.6849 142.2443 0010788 131.5100 228.7006 14.22175332823149
CUBESAT XI 4
1 27848U 03031J   19133.47264974  .00000042  00000-0  39035-4 0  9996
2 27848  98.6928 142.7185 0010493 141.8627 218.3294 14.21770612822997
MOZHAYETS 4
1 27939U 03042A   19133.41535642  .00000205  00000-0  45274-4 0  9999
2 27939  98.0346 269.9502 0013011 176.6631 183.4675 14.66776936835220
CUBESAT XI 5
1 28895U 05043F   19133.34457149  .00000129  00000-0  33500-4 0  9995
2 28895  97.9537 277.3331 0018225 105.6780 254.6435 14.63658027722175
CUTE-1.7+APD II
1 32785U 08021C   19132.84225024 +.00000241 +00000-0 +31674-4 0  9991
2 32785 097.5495 134.2956 0013876 031.5076 328.6970 14.88293194598133
DELFI C3
1 32789U 08021G   19133.09653095  .00001545  00000-0  10756-3 0  9991
2 32789  97.4674 183.8614 0010749 246.9319 113.0775 15.06865465601450
SEEDS
1 32791U 08021J   19133.05685416  .00000292  00000-0  35063-4 0  9999
2 32791  97.5287 140.4342 0013456   7.3325 352.8089 14.90796214598650
YUBELEINY
1 32953U 08025A   19133.50724897  .00000020  00000-0  75656-4 0  9991
2 32953  82.5020 167.2659 0018609 204.7641 155.2548 12.43089420497817
PRISM (HITOMI)
1 33493U 09002B   19132.82376432  .00000096  00000-0  14035-4 0  9996
2 33493  98.1224  52.3802 0014315 309.5384  50.4571 14.96613431559634
KKS-1 (KISEKI)
1 33499U 09002H   19132.91785858 +.00000105 +00000-0 +23565-4 0  9997
2 33499 098.3528 330.4482 0008499 331.1972 028.8765 14.75431662553373
SWISSCUBE
1 35932U 09051B   19133.45631442  .00000147  00000-0  44172-4 0  9997
2 35932  98.5844 298.3760 0006365 277.5318  82.5156 14.56273264511509
BEESAT
1 35933U 09051C   19133.39282128  .00000119  00000-0  37785-4 0  9995
2 35933  98.5874 300.0516 0004641 294.9902  65.0812 14.56363819511602
ITUPSAT 1
1 35935U 09051E   19133.42958256  .00000096  00000-0  33325-4 0  9993
2 35935  98.5985 300.3299 0006946 289.6043  70.4403 14.55525362511366
XIWANG-1 (HOPE-1)
1 36122U 09072B   19133.48152263 -.00000058  00000-0 -41127-4 0  9994
2 36122 100.0724 137.5641 0008204  71.5486 288.6523 13.16349297452114
TISAT 1
1 36799U 10035E   19132.63975550 +.00000517 +00000-0 +58327-4 0  9991
2 36799 098.1509 283.5747 0011819 201.4723 158.6000 14.91075936479042
JUGNU
1 37839U 11058B   19133.51387279  .00000318  00000-0  27421-4 0  9996
2 37839  19.9599 194.1643 0018760 288.7393 209.2682 14.12649934392134
SRMSAT
1 37841U 11058D   19133.49902152  .00000309  00000-0  24635-4 0  9993
2 37841  19.9718 250.2820 0011722 158.4440 278.2899 14.10631350391572
M-CUBED/EXP-1 PRIME
1 37855U 11061F   19132.57845204 +.00001162 +00000-0 +66056-4 0  9995
2 37855 101.7198 009.1219 0173791 186.7808 173.1051 15.05330146410725
HORYU 2
1 38340U 12025D   19133.09666381  .00000173  00000-0  33341-4 0  9993
2 38340  98.3325 170.5823 0010380 236.6761 123.3454 14.75704135375766
STRAND 1
1 39090U 13009E   19132.83328344  .00000030  00000-0  25570-4 0  9991
2 39090  98.4922 339.4039 0010032  44.0933 316.1051 14.35082376325104
SOMP
1 39134U 13015E   19133.50485885  .00001407  00000-0  73788-4 0  9999
2 39134  64.8616 137.6685 0027764 309.1097  50.7562 15.20063037335096
BEESAT 3
1 39135U 13015F   19132.44022052  .00001255  00000-0  72209-4 0  9993
2 39135  64.8652 158.8972 0015595 323.9817  36.0257 15.17380422334592
BEESAT 2
1 39136U 13015G   19132.52926279  .00001060  00000-0  63474-4 0  9995
2 39136  64.8682 162.3182 0016522 310.6893  49.2796 15.16823600334534
CUBEBUG 1
1 39153U 13018D   19133.47103320  .00000182  00000-0  30697-4 0  9991
2 39153  97.9758 231.8048 0015895 319.6061  40.3970 14.80552512326454
ZACUBE
1 39417U 13066B   19132.95314975 +.00000220 +00000-0 +33890-4 0  9990
2 39417 097.5644 148.5168 0059719 153.1028 207.3303 14.81097180295604
TRITON 1
1 39427U 13066M   19133.53009463  .00000187  00000-0  38185-4 0  9993
2 39427  97.6735 113.1482 0112323 281.4801  77.3808 14.67824108293031
GOMX 1
1 39430U 13066Q   19133.48655201  .00000257  00000-0  55502-4 0  9998
2 39430  97.7437  92.4301 0151941   8.9402 351.4443 14.59235896291324
HUMSAT D
1 39433U 13066T   19133.13436739  .00000485  00000-0  52556-4 0  9995
2 39433  97.5571 182.1267 0032238  64.3826 296.0718 14.92158821297622
CUBEBUG 2
1 39440U 13066AA  19132.93597980 +.00000208 +00000-0 +35927-4 0  9992
2 39440 097.6020 133.5449 0079630 203.3642 156.3942 14.75836579293357
FUNCUBE 1
1 39444U 13066AE  19133.04148796  .00000288  00000-0  41693-4 0  9991
2 39444  97.5626 150.5092 0059022 146.9141 213.5787 14.81911969294509
UWE-3
1 39446U 13066AG  19133.54461826  .00000215  00000-0  35066-4 0  9997
2 39446  97.5820 141.0958 0070146 176.7229 183.4457 14.78370987293920
SPROUT
1 39770U 14029E   19133.30224576  .00000595  00000-0  72045-4 0  9999
2 39770  97.8809 236.8405 0008380 197.5663 162.5261 14.87292393269427
UNISAT 6
1 40012U 14033C   19132.88177642  .00000166  00000-0  32150-4 0  9995
2 40012  97.7628   1.0690 0057387 215.5160 144.2224 14.73961861263268
DUCHIFAT 1
1 40021U 14033M   19133.36220556  .00000305  00000-0  37023-4 0  9991
2 40021  97.9237  57.8372 0013126 163.4160 196.7489 14.90598581266134
QB50P1
1 40025U 14033R   19132.73828674  .00000275  00000-0  35267-4 0  9994
2 40025  97.9065  52.4811 0012418 174.4051 185.7307 14.88920184265827
CHUBUSAT 1
1 40300U 14070C   19133.29603361  .00000790  00000-0  37432-4 0  9995
2 40300  97.3274 208.3942 0019277 180.6842 221.7496 15.22032990250487
NUDT-PHONESAT
1 40900U 15049B   19133.43737234  .00002277  00000-0  10080-3 0  9992
2 40900  97.4382 143.1305 0011766 318.9505 147.7600 15.22637892202146
ZDPS 2A
1 40901U 15049C   19133.49143860  .00001146  00000-0  60167-4 0  9991
2 40901  97.4606 139.8403 0012810 336.8590 175.0370 15.17662772201743
ZDPS 2B
1 40902U 15049D   19133.43736286  .00001156  00000-0  61020-4 0  9996
2 40902  97.4543 137.3398 0012963 334.1800 129.8920 15.17452957201711
XW-2A
1 40903U 15049E   19133.36313721  .00002380  00000-0  58320-4 0  9993
2 40903  97.3409 175.9145 0011968 279.3594 143.2388 15.41708725204652
KAITUO 1A
1 40904U 15049F   19133.42220507  .00000580  00000-0  34230-4 0  9994
2 40904  97.4669 136.0530 0014274 340.7544 152.0179 15.15328608201505
OBJECT G
1 40905U 15049G   19133.40591961  .00000652  00000-0  39194-4 0  9992
2 40905  97.4706 133.6365 0015170 335.1905 130.7653 15.14260726201383
XW-2C
1 40906U 15049H   19133.35995984  .00000528  00000-0  31215-4 0  9998
2 40906  97.4675 136.0425 0014250 331.8932 136.3109 15.15623962201490
XW-2D
1 40907U 15049J   19133.40831968  .00000930  00000-0  52058-4 0  9991
2 40907  97.4648 135.7670 0013726 330.1779 139.5743 15.15810669201511
LILACSAT 2
1 40908U 15049K   19133.44854131  .00000109  00000-0  96706-5 0  9990
2 40908  97.4786 134.7182 0015293 334.3065 183.7685 15.13769883201321
XW-2F
1 40910U 15049M   19133.47808561  .00001388  00000-0  73090-4 0  9992
2 40910  97.4625 137.7477 0013798 321.8963 191.1632 15.17218730201523
XW-2B
1 40911U 15049N   19133.44848801  .00000528  00000-0  31154-4 0  9991
2 40911  97.4677 136.4454 0013324 330.2646 189.4218 15.15739242201411
KAITUO 1B
1 40912U 15049P   19133.42939759  .00001287  00000-0  63719-4 0  9998
2 40912  97.4504 141.2553 0013462 303.3889 193.9118 15.19517741201802
TIANWANG 1C (TW-1C)
1 40926U 15051B   19133.49690287  .00016351  00000-0  24500-3 0  9995
2 40926  97.1388 179.7266 0009236 137.1795 330.4427 15.54974071204530
